Regional Weather Roundup
Issued by NWS Northern Indiana

Home | Current Version | Previous Version | Graphics & Text | Print | Product List | Glossary On
Versions: 1 2 3 4 5 6 7 8 9 10 11 12 13 14 15 16 17 18 19 20 21 22 23 24 25 26 27 28 29 30 31 32 33 34 35 36 37 38 39 40 41 42 43 44 45 46 47 48 49 50
000
ASUS43 KIWX 260000
RWRIWX

KIWX WEATHER ROUNDUP
NATIONAL WEATHER SERVICE NORTHERN INDIANA
800 PM EDT MON JUL 25 2016

NOTE: "FAIR" INDICATES FEW OR NO CLOUDS BELOW 12,000 FEET WITH NO
SIGNIFICANT WEATHER AND/OR OBSTRUCTIONS TO VISIBILITY.

* THESE STATIONS ARE NOT UNDER NWS QUALITY CONTROL. THEY ALSO MAY NOT
  REPORT WEATHER SUCH AS PRECIPITATION OR FOG.

INZ001>027-260100-
NORTHERN INDIANA

CITY           SKY/WX    TMP DP  RH WIND       PRES   REMARKS
GARY*          PTSUNNY   82  64  54 E5        29.99S
KNOX*          CLOUDY    79  54  41 N3        29.99F
SOUTH BEND     CLOUDY    80  61  52 N6        30.00F
6HR MIN TEMP:  79; 6HR MAX TEMP:  83;

ELKHART*       CLOUDY    81  68  65 NW9       30.00S
GOSHEN         SUNNY     81  61  50 NW10      29.99S
6HR MIN TEMP:  81; 6HR MAX TEMP:  87;

ANGOLA*          N/A     84  79  84 NW8       29.98R HX  96
FORT WAYNE     PTSUNNY   83  64  52 NW8       29.98R
6HR MIN TEMP:  82; 6HR MAX TEMP:  87;

PERU/GRISSOM   PTSUNNY   81  68  64 N7        29.98R
6HR MIN TEMP:  81; 6HR MAX TEMP:  86;


$$
INZ028>050-260100-
CENTRAL INDIANA

CITY           SKY/WX    TMP DP  RH WIND       PRES   REMARKS
LAFAYETTE      MOSUNNY   81  72  74 N3        29.98R
6HR MIN TEMP:  81; 6HR MAX TEMP:  86;

KOKOMO*        MOSUNNY   81  70  69 NW5       29.99R
6HR MIN TEMP:  81; 6HR MAX TEMP:  88;

MUNCIE*        SUNNY     84  71  65 NW7       29.99R
6HR MIN TEMP:  84; 6HR MAX TEMP:  88;

INDIANAPOLIS   CLOUDY    84  72  67 NW8       29.98S
6HR MIN TEMP:  84; 6HR MAX TEMP:  90;


$$
MIZ043>046-050>051-056>058-064>065-071>073-077>080-260100-
SOUTHWEST LOWER MICHIGAN

CITY           SKY/WX    TMP DP  RH WIND       PRES   REMARKS
BATTLE CREEK   SUNNY     78  63  59 W12       29.99R
6HR MIN TEMP:  78; 6HR MAX TEMP:  84;

BENTON HARBOR  MOSUNNY   79  62  56 CALM      29.99S
6HR MIN TEMP:  78; 6HR MAX TEMP:  80;

COLDWATER*     SUNNY     80  63  56 W8        29.98S
6HR MIN TEMP:  80; 6HR MAX TEMP:  86;

HILLSDALE*     SUNNY     80  65  60 NW7       29.98R
HOLLAND        SUNNY     77  63  61 W8        30.00R
6HR MIN TEMP:  77; 6HR MAX TEMP:  82;

GRAND RAPIDS   MOSUNNY   81  60  48 W12       29.98R
6HR MIN TEMP:  81; 6HR MAX TEMP:  87;

KALAMAZOO      SUNNY     79  61  53 NW10      29.99R
6HR MIN TEMP:  79; 6HR MAX TEMP:  86;

STURGIS*       SUNNY     79  63  57 NW7       29.99R
6HR MIN TEMP:  79; 6HR MAX TEMP:  85;

THREE RIVERS*  FAIR      80  60  51 NW8       30.00R
6HR MIN TEMP:  80; 6HR MAX TEMP:  86;


$$
OHZ001>008-015>018-024>025-260100-
NORTHWEST OHIO

CITY           SKY/WX    TMP DP  RH WIND       PRES   REMARKS
DEFIANCE       CLEAR     85  65  51 NW6       29.95S
6HR MIN TEMP:  85; 6HR MAX TEMP:  90;

FINDLAY        CLOUDY    86  66  51 W6        29.94R
6HR MIN TEMP:  85; 6HR MAX TEMP:  91;

TOLEDO EXPRESS CLEAR     84  68  58 W9        29.94R
6HR MIN TEMP:  84; 6HR MAX TEMP:  88;

TOLEDO METCALF CLEAR     86  67  52 W13       29.94R
6HR MIN TEMP:  86; 6HR MAX TEMP:  90;

LIMA           CLOUDY    81  72  74 W8        29.97R
6HR MIN TEMP:  81; 6HR MAX TEMP:  88;


$$
AND FOR LAKE MICHIGAN COASTAL AND OPEN LAKE BUOY OBSERVATIONS

STATION/POSITION TEMP    WIND        PRES    VSBY  WAVE
                 AIR SEA DIR/SP/G                  HT/PER
                 (F)     (DEG/KT/KT) (MB)    (MI)  (FT/S)
CALUMET HARBOR    77                   N/A
MICHIGAN CITY     78      20/  4/  4   N/A
BURNS HARBOR      79      60/  7/  8 1015.9S
SAINT JOSEPH      84      CALM  /  2 1016.9S
SOUTH LAKE BUOY   76 76  180/  4/  6 1014.7          1
4 MI NW BRIDGMAN  77 77   90/  2/  4 1015.4F         1/ 4
MICHIGAN CITY     76 76  100/  4/  6   N/A           1

$$
&&



USA.gov is the U.S. government's official web portal to all federal, state and local government web resources and services.